Regional Weather Roundup
Issued by NWS Newport/Morehead, NC

Current Version | Previous Version | Text Only | Print | Product List | Glossary Off
Versions: 1 2 3 4 5 6 7 8 9 10 11 12 13 14 15 16 17 18 19 20 21 22 23 24 25 26 27 28 29 30 31 32 33 34 35 36 37 38 39 40 41 42 43 44 45 46 47 48 49 50
000 ASUS42 KMHX 262210 RWRMHX WEATHER ROUNDUP FOR EASTERN NORTH CAROLINA NATIONAL WEATHER SERVICE NEWPORT/MOREHEAD CITY NC 500 PM EST WED NOV 26 2014 NOTE: "FAIR" INDICATES FEW OR NO CLOUDS BELOW 12,000 FEET WITH NO SIGNIFICANT WEATHER AND/OR OBSTRUCTIONS TO VISIBILITY NCZ015>017-031-032-045>047-102-103-262300- NORTH COAST CITY SKY/WX TMP DP RH WIND PRES REMARKS EDENTON CLOUDY 43 41 91 NW12G23 29.92R ELIZABETH CITY CLOUDY 47 41 80 W17G24 29.88R KITTY HAWK CLOUDY 46 45 98 NW14G22 29.84R MANTEO CLOUDY 45 44 96 NW18G25 29.86R $$ NCZ045>047-081-094-103-104-262300- CENTRAL COAST CITY SKY/WX TMP DP RH WIND PRES REMARKS FRISCO CLOUDY 46 46 100 NW16G28 29.85R SWANQUARTER N/A 46 N/A N/A NW17 29.85S $$ NCZ095-097-098-100-101-262300- SOUTHERN COAST CITY SKY/WX TMP DP RH WIND PRES REMARKS BEAUFORT CLOUDY 48 46 93 NW15G24 29.92R CEDAR ISLAND N/A 48 N/A N/A NW17G29 29.91S JACKSONVILLE CLOUDY 49 45 86 NW14G20 29.96R PINEY ISLAND CLOUDY 50 44 80 NW15G28 29.90R WILMINGTON CLOUDY 50 45 83 NW12 29.99R $$ NCZ011>013-027>030-043-044-078>080-089-090>093-098-262300- COASTAL PLAIN CITY SKY/WX TMP DP RH WIND PRES REMARKS AHOSKIE CLOUDY 40 37 90 NW6 29.96R CLINTON CLOUDY 46 44 91 CALM 30.00R ELIZABETHTOWN CLOUDY 48 44 85 NW7G16 30.00R GOLDSBORO CLOUDY 45 44 97 NW8 29.97R GREENVILLE CLOUDY 45 41 87 NW9 29.98R HAVELOCK CLOUDY 48 45 89 NW13 29.94R KENANSVILLE CLOUDY 46 42 85 NW8 29.99R KINSTON CLOUDY 45 43 93 NW9 29.98R NEW BERN CLOUDY 49 44 83 NW13G20 29.94R RICHLANDS CLOUDY 46 43 87 W7 29.97R ROCKY MOUNT CLOUDY 43 39 86 NW10 29.98R WASHINGTON CLOUDY 45 42 89 NW14G21 29.93R WHITEVILLE CLOUDY 50 45 81 W6 30.01R $$ AMZ130-135-150-152-154-156-158-170-250-252-270-ANZ085-086-088-633-658-670-262300- MARINE OBSERVATIONS STATION/POSITION TIME TEMP WIND PRES WAVE SWELL AIR SEA DIR/SP/G HT/PER HT/PER (UTC) (F) (DEG/KT/KT) (MB) (FT/S) (FT/S) CHESAPEAKE LIGHT 2100 45 330/ 26/ 28 1009.7 64 E VA BEACH 2200 53 62 310/ 27/ 35 1005.7 10/ 8 5/ 9 DUCK 2200 46 56 310/ 19/ 24 1009.4 2 E DUCK 2200 58 N/A 8/ 8 2/11 10 NE DUCK 2100 60 N/A 10/ 8 2/11 OREGON INLET 2200 47 59 290/ 17/ 27 1010.5 13E OREGON INLT 2200 63 N/A 10/ 8 2/11 HATTERAS CG 2200 49 63 300/ 25/ 30 1011.2 DIAMOND BUOY 2200 52 290/ 23/ 31 1009.7 10/ 8 7/ 8 17 S OCRACOKE NOT AVBL CAPE LOOKOUT 2200 49 310/ 18/ 22 1012.5 BEAUFORT LAB 2200 48 59 330/ 9/ 15 1011.6 30 SE NEW RIVER 2200 53 67 320/ 23/ 29 1013.6 8/ 8 5 SE WRIGHTSVLE 2100 49 59 310/ 21/ 25 1013.1 225 S CAPE HAT 2105 71 73 290/ 21/ 29 1013.4 10/ 8 2/12 41 SE CHARLESTON 2200 58 74 300/ 19/ 25 1016.9 6/ 5 2/ 9 $$

USA.gov is the U.S. government's official web portal to all federal, state and local government web resources and services.